COSMOS 2317 (GLONASS)

Satellite information

Favourite Embed

Satellite Type and Status

PAYLOADIN ORBIT

Key statistics

Satellite COSMOS 2317 (GLONASS) at a glance.

Uptime

11001

Days in orbit

Revolutions

≈ 2.1

Per day

Orbit

MEO

Medium Earth Orbit

Inclination

65.5

Latest

Satellite identification and parameters

Extended collection of information and parameters for COSMOS 2317 (GLONASS).

Object identification

Identified? True

Debris? False

Object name: COSMOS 2317 (GLONASS)

International designator: 1995-037B

Object number (NORAD): 23621

Object ID (CCSDS): 23621

Country: COMMONWEALTH OF INDEPENDENT STATES (CIS)

Current information (Y/N): Y

RCS size: LARGE

Orbital parameters

Period: 675.734 minutes

Inclination: 65.4811 deg

SMA: 25508.05 km

Apoapsis: 19154.226 km

Periapsis: 19105.605 km

RAAN: 212.2263 deg

Eccentricy: 0.00095305

Argument of periapsis: 171.4434 deg

Mean anomaly: 357.1007 deg

Mean motion: 2.13101678 rev/day

Mean motion (dot): 0.00000052 rev/day2

B* drag term: 0.0 1/REarth

Two-line elements (TLE)

Creation date: Sept. 4, 2025, 4:29 a.m.

Reference frame: TEME

Reference center: EARTH

Epoch: Sept. 3, 2025, 10:56 a.m. UTC

TLE line 0: 0 COSMOS 2317 (GLONASS)

TLE line 1: 1 23621U 95037B 25246.45617076 .00000052 00000-0 00000-0 0 9990

TLE line 2: 2 23621 65.4811 212.2263 0009530 171.4434 357.1007 2.13101678234146

Live tracking on map

Real-time ground track for satellite COSMOS 2317 (GLONASS).

In-orbit conjunctions

There are no conjunctions computed for COSMOS 2317 (GLONASS), at the moment. Check back to stay up to date, as we update our databases every day.

Go to all conjunctions

Associated space launch

GLONASS navigation satellites

COSMOS 2317 (GLONASS) was lifted into orbit during the mission ‘Proton | Uragan 66 to 68’, on board a Proton space rocket.

The launch took place on July 24, 1995, 3:52 p.m. from 200/39 (200L).

For more information about the launch, click the button.

Launch to space Proton | Uragan 66 to 68
Proton | Uragan 66 to 68

Agency: N/A

Status: Launch Successful

Launch date: July 24, 1995, 3:52 p.m. UTC

Rocket: Proton

Launch pad: 200/39 (200L)

Location: Baikonur Cosmodrome, Republic of Kazakhstan

...

Latest news about this satellite

There are no fresh news available about this satellite. Check back as we update our databases every day.


Newsletter sign-up

Weekly statistics, charts and insights to help you stay on top of the space industry.